Flag for Turkey Weather past 2 weeks in Bodrum, Turkey

Now
58 °F

Partly sunny.


Feels Like: 56 °F
Forecast: 60 / 65 °F
Wind: 8 mph from Southeast

Location: Bodrum

Current Time: Jan 30, 2015 at 12:54:47 PM

Latest Report: Jan 30, 2015 at 12:00 PM


Visibility: 13 mi

Pressure: 29.82 "Hg

Humidity: 74%

Dew point: 49 °F

Location of BodrumLocation

Historic Weather in Bodrum — Graph

°F

Bodrum temperature yesterday

Maximum temperature yesterday: 62 °F (at 1:00 PM)
Minimum temperature yesterday: 47 °F (at 8:00 AM)
Average temperature yesterday: 55 °F

Past Weeks' High & Low Weather Summary

 TemperatureHumidityPressure
High67 °F (Jan 22, 3:00 PM)95% (Jan 15, 12:00 PM)30.37 "Hg (Jan 15, 12:00 PM)
Low47 °F (Jan 17, 8:00 AM)45% (Jan 17, 11:00 AM)29.73 "Hg (Jan 29, 5:00 PM)
Average58 °F70%30.02 "Hg
* Reported Jan 15 11:00 AM — Jan 30 11:00 AM, Bodrum, Weather by CustomWeather, © 2014

Note: Actual official high and low records may vary slightly from our data, if they occured in-between our weather recording intervals... More about our weather records

Advertising

Bodrum weather history for previous 24 hours

 ConditionsComfort  
Time TempWeatherWind HumidityBarometerVisibility
11:00 AM
Jan 30
56 °FPartly sunny.8 mph75%29.83 "Hg12 mi
10:00 AM55 °FPartly sunny.7 mph75%29.83 "Hg12 mi
9:00 AM54 °FPartly sunny.7 mph78%29.81 "Hg12 mi
8:00 AM52 °FPartly sunny.7 mph81%29.80 "Hg12 mi
5:00 AM52 °FPassing clouds.5 mph80%29.75 "Hg12 mi
2:00 AM53 °FPassing clouds.8 mph77%29.75 "Hg12 mi
11:00 PM
Jan 29
56 °FPassing clouds.7 mph67%29.75 "Hg12 mi
8:00 PM54 °FOvercast.5 mph73%29.76 "Hg12 mi
7:00 PM53 °FThunderstorms. Overcast.3 mph75%29.77 "Hg9 mi
6:00 PM53 °FThundershowers. Overcast.5 mph80%29.76 "Hg6 mi
5:00 PM56 °FThunderstorms. Overcast.10 mph70%29.73 "Hg9 mi
4:00 PM59 °FThunderstorms. Overcast.14 mph61%29.73 "Hg9 mi
3:00 PM54 °FThundershowers. Overcast.14 mph73%29.73 "Hg2 mi
2:00 PM61 °FPartly sunny.15 mph53%29.75 "Hg12 mi
1:00 PM62 °FScattered clouds.15 mph55%29.76 "Hg12 mi
12:00 PM58 °FPartly sunny.12 mph62%29.78 "Hg12 mi
Weather by CustomWeather, © 2014

See weather overviewHow to use our weather pages